World > North America > United States > New York
Hourly Weather in Roosevelt Island, New YorkRoosevelt Island, New York Hourly Weather

Roosevelt Island, NY Hourly Weather

Hourly Weather Roosevelt Island, New YorkHourly Weather in Roosevelt Island, NY
Lat: 40.76N, Lon: 73.95W  ICAO: KNYC
Web Search
Roosevelt Island Weather Warning NWS WEATHER ALERT FOR THE ROOSEVELT ISLAND, NY AREA - Issued: 431 PM EST Fri Dec 3 2021 Roosevelt Island Weather Warning  

Helpful Tip: Abbreviated, 7 Day, 14 Day Forecasts. There is a weather forecast for every taste.

Feedback

Roosevelt Island Hourly Weather

36 Hour Weather Scroll   °F Click to change Roosevelt Island hourly weather to Imperial units.Click to change Roosevelt Island hourly weather to Metric units. °C
Currently, Clear, temperature is 38°F3°C, dew point 21°F-6°C, humidity 51%. Wind direction is WNW at 7 mph11 km/h with visibility of 10.00 mi16 km. Barometric pressure is 30.09 in1019 mb.

Dec 04
MIDNIGHT

Dec 04
1:00 AM

Dec 04
2:00 AM

Dec 04
3:00 AM

Dec 04
4:00 AM

Dec 04
5:00 AM

Dec 04
6:00 AM

Dec 04
7:00 AM

Dec 04
8:00 AM

Dec 04
9:00 AM

Dec 04
10:00 AM

Dec 04
11:00 AM

Dec 04
NOON

Dec 04
1:00 PM

Dec 04
2:00 PM

Dec 04
3:00 PM

Dec 04
4:00 PM

Dec 04
5:00 PM

Dec 04
6:00 PM

Dec 04
7:00 PM

Dec 04
8:00 PM

Dec 04
9:00 PM

Dec 04
10:00 PM

Dec 04
11:00 PM

Dec 05
MIDNIGHT

Dec 05
1:00 AM

Dec 05
2:00 AM

Dec 05
3:00 AM

Dec 05
7:00 AM

Dec 05
8:00 AM

Dec 05
9:00 AM

Dec 05
1:00 PM

Dec 05
2:00 PM

Dec 05
3:00 PM


7:00 PM


7:00 PM
Clear Clear Clear Partly Cloudy Partly Cloudy Partly Cloudy Partly Cloudy Partly Cloudy Partly Cloudy Partly Cloudy Partly Cloudy Partly Cloudy Clear Clear Clear Partly Cloudy Partly Cloudy Partly Cloudy Cloudy Cloudy Cloudy Cloudy Cloudy Cloudy Cloudy Cloudy Cloudy Cloudy Cloudy Cloudy Cloudy Cloudy Cloudy
Clear Clear Clear Partly Cloudy Partly Cloudy Partly Cloudy Partly Cloudy Partly Cloudy Partly Cloudy Partly Cloudy Partly Cloudy Partly Cloudy Clear Clear Clear Partly Cloudy Partly Cloudy Partly Cloudy Cloudy Cloudy Cloudy Cloudy Cloudy Cloudy Cloudy Cloudy Cloudy Cloudy Cloudy Cloudy Cloudy Cloudy Cloudy
45°F7°C 44°F7°C 43°F6°C 42°F6°C 41°F5°C 40°F4°C 40°F4°C 39°F4°C 39°F4°C 40°F4°C 40°F4°C 41°F5°C 43°F6°C 44°F7°C 44°F7°C 45°F7°C 45°F7°C 45°F7°C 44°F7°C 44°F7°C 44°F7°C 44°F7°C 44°F7°C 44°F7°C 45°F7°C 45°F7°C 47°F8°C 48°F9°C 50°F10°C 52°F11°C 54°F12°C 56°F13°C 37°F3°C 19°F-7°C °F-18°C **°F°C
- - - - - - - - - - - - - - - - - - - - - - - - - - Rain Rain Rain Rain Rain Rain - - - -
1% 1% 0% 0% 0% 0% 0% 0% 3% 3% 3% 3% 3% 3% 0% 0% 0% 0% 0% 0% 5% 5% 5% 5% 5% 5% 42% 42% 42% 26% 26% 26% % % % %
26°F-3°C 25°F-4°C 24°F-4°C 24°F-4°C 23°F-5°C 22°F-6°C 22°F-6°C 21°F-6°C 20°F-7°C 19°F-7°C 18°F-8°C 19°F-7°C 19°F-7°C 20°F-7°C 21°F-6°C 22°F-6°C 23°F-5°C 24°F-4°C 26°F-3°C 27°F-3°C 28°F-2°C 28°F-2°C 29°F-2°C 31°F-1°C 32°F0°C 34°F1°C 37°F3°C 41°F5°C 44°F7°C 45°F7°C 45°F7°C 46°F8°C 31°F-1°C 15°F-9°C °F-18°C **°F°C
47% 47% 47% 49% 48% 48% 48% 48% 46% 42% 41% 41% 38% 38% 40% 40% 41% 43% 49% 51% 53% 53% 55% 60% 60% 65% 68% 77% 80% 77% 72% 69% 79% 84% ** **
NW NW NW NW NW NW NW NNW SW SE NNE NE NE ENE E E E E ESE ESE ESE SE SE SE ESE ESE ESE E E SE SSE S SE ENE N N
7 mph 7 mph 7 mph 5 mph 5 mph 5 mph 4 mph 4 mph 4 mph 3 mph 3 mph 3 mph 3 mph 3 mph 3 mph 4 mph 4 mph 4 mph 5 mph 5 mph 5 mph 5 mph 5 mph 5 mph 4 mph 4 mph 4 mph 5 mph 5 mph 5 mph 8 mph 8 mph 8 mph mph 0 mph ** mph
10 mi16 km 10 mi16 km 10 mi16 km 10 mi16 km 10 mi16 km 10 mi16 km 10 mi16 km 10 mi16 km 10 mi16 km 10 mi16 km 10 mi16 km 10 mi16 km 10 mi16 km 10 mi16 km 10 mi16 km 10 mi16 km 10 mi16 km 10 mi16 km 10 mi16 km 10 mi16 km 10 mi16 km 10 mi16 km 10 mi16 km 10 mi16 km 10 mi16 km 10 mi16 km 6 mi10 km 3 mi5 km .75 mi1 km 3 mi5 km 6 mi10 km 10 mi16 km 5 mi8 km .5 mi1 km mi km mi km
Hour (EST)
Weather
Clouds
Temperature
Precip. Type
POP
Dewpoint
Humidity
Wind Direction
Wind Speed
Visibility
POP = Probability of Precipitation. ** Indicates missing data/values from model statistics.

24 Hour Forecast

Tonight - Mostly cloudy. Lows in the mid 30s. Northwest winds 5 to 10 mph.
Saturday - Mostly cloudy in the morning, then becoming partly sunny. Highs in the upper 40s. West winds 5 to 10 mph.

48 Hour Forecast API Feed


Sat, Dec 4
Midnight

Sat, Dec 4
1:00 am

Sat, Dec 4
2:00 am

Sat, Dec 4
3:00 am

Sat, Dec 4
4:00 am

Sat, Dec 4
5:00 am

Sat, Dec 4
6:00 am

Sat, Dec 4
7:00 am

Sat, Dec 4
8:00 am

Sat, Dec 4
9:00 am

Sat, Dec 4
10:00 am

Sat, Dec 4
11:00 am

Sat, Dec 4
Noon

Sat, Dec 4
1:00 pm

Sat, Dec 4
2:00 pm

Sat, Dec 4
3:00 pm

Sat, Dec 4
4:00 pm

Sat, Dec 4
5:00 pm

Sat, Dec 4
6:00 pm

Sat, Dec 4
7:00 pm

Sat, Dec 4
8:00 pm

Sat, Dec 4
9:00 pm

Sat, Dec 4
10:00 pm

Sat, Dec 4
11:00 pm

Sun, Dec 5
Midnight

Sun, Dec 5
1:00 am

Sun, Dec 5
2:00 am

Sun, Dec 5
3:00 am

Sun, Dec 5
4:00 am

Sun, Dec 5
5:00 am

Sun, Dec 5
6:00 am

Sun, Dec 5
7:00 am

Sun, Dec 5
8:00 am

Sun, Dec 5
9:00 am

Sun, Dec 5
10:00 am

Sun, Dec 5
11:00 am

Sun, Dec 5
Noon

Sun, Dec 5
1:00 pm

Sun, Dec 5
2:00 pm

Sun, Dec 5
3:00 pm

Sun, Dec 5
4:00 pm

Sun, Dec 5
5:00 pm

Sun, Dec 5
6:00 pm

Sun, Dec 5
7:00 pm

Sun, Dec 5
8:00 pm

Sun, Dec 5
9:00 pm

Sun, Dec 5
10:00 pm

Sun, Dec 5
11:00 pm
ClearPartly CloudyPartly CloudyPartly CloudyPartly CloudyPartly CloudyOvercastPartly CloudyCloudyPartly CloudyPartly CloudyPartly CloudyPartly CloudySunnyPartly CloudyPartly CloudyCloudyPartly CloudyClearClearClearPartly CloudyPartly CloudyClearClearClearClearPartly CloudyPartly CloudyPartly CloudyPartly CloudyPartly CloudyPartly CloudyPartly CloudyPartly CloudyPartly CloudyPartly CloudySunnySunnySunnySunnyClearClearPartly CloudyCloudyOvercastOvercastPartly Cloudy
Clear Partly cloudy Partly cloudy Partly cloudy Partly cloudy Partly cloudy Overcast Partly cloudy Cloudy Partly cloudy Partly cloudy Partly cloudy Partly cloudy Sunny Partly cloudy Partly cloudy Cloudy Partly cloudy Clear Clear Clear Partly cloudy Partly cloudy Clear Clear Clear Clear Partly cloudy Partly cloudy Partly cloudy Partly cloudy Partly cloudy Partly cloudy Partly cloudy Partly cloudy Partly cloudy Partly cloudy Sunny Sunny Sunny Sunny Clear Clear Partly cloudy Cloudy Overcast Overcast Partly cloudy
38°F
4°C
38°F
3°C
37°F
3°C
37°F
3°C
37°F
3°C
37°F
3°C
37°F
3°C
37°F
3°C
37°F
3°C
38°F
3°C
39°F
4°C
42°F
5°C
44°F
6°C
45°F
7°C
46°F
8°C
47°F
8°C
47°F
9°C
48°F
9°C
48°F
9°C
48°F
9°C
47°F
8°C
46°F
8°C
45°F
7°C
44°F
7°C
43°F
6°C
42°F
5°C
41°F
5°C
40°F
5°C
39°F
4°C
39°F
4°C
39°F
4°C
38°F
4°C
38°F
3°C
38°F
3°C
38°F
4°C
40°F
4°C
41°F
5°C
43°F
6°C
45°F
7°C
45°F
7°C
45°F
7°C
44°F
7°C
44°F
7°C
44°F
7°C
45°F
7°C
46°F
8°C
47°F
8°C
47°F
8°C
22°F
-5°C
22°F
-6°C
22°F
-6°C
22°F
-6°C
22°F
-6°C
22°F
-6°C
22°F
-6°C
22°F
-6°C
22°F
-6°C
22°F
-6°C
22°F
-6°C
24°F
-5°C
25°F
-4°C
28°F
-3°C
29°F
-2°C
30°F
-1°C
31°F
-1°C
32°F
-0°C
32°F
0°C
33°F
0°C
33°F
0°C
33°F
1°C
32°F
0°C
30°F
-1°C
29°F
-2°C
26°F
-3°C
24°F
-4°C
24°F
-5°C
23°F
-5°C
22°F
-6°C
21°F
-6°C
20°F
-7°C
19°F
-7°C
19°F
-7°C
19°F
-7°C
19°F
-8°C
18°F
-8°C
18°F
-8°C
18°F
-8°C
18°F
-8°C
18°F
-8°C
20°F
-7°C
24°F
-5°C
26°F
-3°C
28°F
-2°C
31°F
-1°C
33°F
1°C
35°F
2°C
30.09 in
1019 mb
30.12 in
1020 mb
30.12 in
1020 mb
30.12 in
1020 mb
30.12 in
1020 mb
30.12 in
1020 mb
30.12 in
1020 mb
30.15 in
1021 mb
30.15 in
1021 mb
30.15 in
1021 mb
30.15 in
1021 mb
30.15 in
1021 mb
30.15 in
1021 mb
30.12 in
1020 mb
30.09 in
1019 mb
30.06 in
1018 mb
30.06 in
1018 mb
30.09 in
1019 mb
30.09 in
1019 mb
30.12 in
1020 mb
30.12 in
1020 mb
30.15 in
1021 mb
30.15 in
1021 mb
30.18 in
1022 mb
30.18 in
1022 mb
30.21 in
1023 mb
30.24 in
1024 mb
30.27 in
1025 mb
30.27 in
1025 mb
30.3 in
1026 mb
30.33 in
1027 mb
30.36 in
1028 mb
30.39 in
1029 mb
30.39 in
1029 mb
30.42 in
1030 mb
30.42 in
1030 mb
30.42 in
1030 mb
30.39 in
1029 mb
30.39 in
1029 mb
30.39 in
1029 mb
30.39 in
1029 mb
30.39 in
1029 mb
30.39 in
1029 mb
30.39 in
1029 mb
30.36 in
1028 mb
30.36 in
1028 mb
30.33 in
1027 mb
30.33 in
1027 mb
52%53%53%53%53%53%53%53%53%52%50%48%48%49%51%52%53%53%54%55%58%62%60%57%57%54%52%52%51%50%48%46%46%45%44%42%39%36%34%33%33%37%44%49%52%55%58%63%
NWNWNWNWWNWWNWNWWNWNNWNWSSWSWSWSWSWSWSWWSWWSWWSWWWWNWWNWNWNWNWNWNWNWNWNWNWNWNNWNNWNNWNNEENESESESESESESESESESSE
8 mph
13 km/h
6 mph
10 km/h
6 mph
9 km/h
5 mph
9 km/h
5 mph
8 km/h
4 mph
6 km/h
3 mph
5 km/h
2 mph
3 km/h
2 mph
3 km/h
0 mph
0 km/h
2 mph
3 km/h
2 mph
4 km/h
4 mph
6 km/h
5 mph
9 km/h
6 mph
10 km/h
8 mph
12 km/h
8 mph
13 km/h
6 mph
10 km/h
6 mph
10 km/h
7 mph
11 km/h
8 mph
13 km/h
7 mph
12 km/h
9 mph
14 km/h
9 mph
14 km/h
10 mph
15 km/h
10 mph
16 km/h
10 mph
15 km/h
9 mph
14 km/h
8 mph
13 km/h
8 mph
13 km/h
8 mph
13 km/h
8 mph
13 km/h
7 mph
12 km/h
8 mph
13 km/h
7 mph
12 km/h
6 mph
9 km/h
4 mph
7 km/h
3 mph
5 km/h
2 mph
4 km/h
4 mph
6 km/h
5 mph
9 km/h
7 mph
12 km/h
7 mph
12 km/h
7 mph
12 km/h
8 mph
13 km/h
9 mph
14 km/h
9 mph
15 km/h
10 mph
16 km/h
0%0%0%0%0%0%0%0%0%0%0%0%0%0%0%0%0%0%0%0%0%0%0%0%0%0%0%0%0%0%0%0%0%0%0%0%0%0%0%0%0%0%0%0%0%0%0%0%
6 mi
10 km
6 mi
10 km
6 mi
10 km
6 mi
10 km
6 mi
10 km
6 mi
10 km
6 mi
10 km
6 mi
10 km
6 mi
10 km
6 mi
10 km
6 mi
10 km
6 mi
10 km
6 mi
10 km
6 mi
10 km
6 mi
10 km
6 mi
10 km
6 mi
10 km
6 mi
10 km
6 mi
10 km
6 mi
10 km
6 mi
10 km
6 mi
10 km
6 mi
10 km
6 mi
10 km
6 mi
10 km
6 mi
10 km
6 mi
10 km
6 mi
10 km
6 mi
10 km
6 mi
10 km
6 mi
10 km
6 mi
10 km
6 mi
10 km
6 mi
10 km
6 mi
10 km
6 mi
10 km
6 mi
10 km
6 mi
10 km
6 mi
10 km
6 mi
10 km
6 mi
10 km
6 mi
10 km
6 mi
10 km
6 mi
10 km
6 mi
10 km
6 mi
10 km
6 mi
10 km
6 mi
10 km

Day/Time
Weather
Condition
Temperature
Dew Point
Pressure
Humidity
Wind Direction
Wind Speed
Prob Precip %
Visibility
Prob Precip % = Probability of Precipitation.